DEVICE NETWORK
Gateway Status
13 ESP · realtime ~1s · history 60s
Weather
WS-MOD-01
ONLINE
Actuator
ACT-MOD-01
OFFLINE
Mainboard L3
MB-L3-01
ONLINE
Mainboard L5
MB-L5-01
ONLINE
Remote AC
AC-REMOTE-01
OFFLINE
PZEM L3-01
PWR-L3-01
OFFLINE
PZEM L3-02
PWR-L3-02
OFFLINE
PZEM L3-03
PWR-L3-03
OFFLINE
PZEM L3-04
PWR-L3-04
OFFLINE
PZEM L5-01
PWR-L5-01
ONLINE
PZEM L5-02
PWR-L5-02
OFFLINE
PZEM L5-03
PWR-L5-03
OFFLINE
PZEM L5-04
PWR-L5-04
OFFLINE
REPORT FILTER
DATABASE HISTORY
Periode & Sensor
REPORT RESULT
Data Sensor
27/08/2026 — 02/09/2026
EXPORT CSV
| NO | TANGGAL | WAKTU | DEVICE | CHANNEL | SENSOR | VALUE | UNIT |
|---|---|---|---|---|---|---|---|
| 11501 | 02/09/2026 | 14:54:55 | MB-L3-01Mainboard Lantai 3 | L3-LUX-04 | Illuminance / LUX 4 | 53.00 | lux |
| 11502 | 02/09/2026 | 14:54:55 | MB-L3-01Mainboard Lantai 3 | L3-HFT-02 | Heat Flow Temperature 2 | 29.10 | °C |
| 11503 | 02/09/2026 | 14:54:55 | MB-L3-01Mainboard Lantai 3 | L3-SHT-01-T | SHT20 1 Temperature | 32.10 | °C |
| 11504 | 02/09/2026 | 14:54:55 | MB-L3-01Mainboard Lantai 3 | L3-LUX-03 | Illuminance / LUX 3 | 103.80 | lux |
| 11505 | 02/09/2026 | 14:54:55 | MB-L3-01Mainboard Lantai 3 | L3-LUX-02 | Illuminance / LUX 2 | 30.20 | lux |
| 11506 | 02/09/2026 | 14:54:55 | MB-L3-01Mainboard Lantai 3 | L3-SHT-01-RH | SHT20 1 Humidity | 48.40 | %RH |
| 11507 | 02/09/2026 | 14:54:55 | MB-L3-01Mainboard Lantai 3 | L3-AI-03 | Analog Input 3 | 3.12 | V |
| 11508 | 02/09/2026 | 14:54:55 | MB-L3-01Mainboard Lantai 3 | L3-SHT-02-RH | SHT20 2 Humidity | 48.30 | %RH |
| 11509 | 02/09/2026 | 14:54:55 | MB-L3-01Mainboard Lantai 3 | L3-BGT-01 | Black Globe Temperature 1 | 29.70 | °C |
| 11510 | 02/09/2026 | 14:54:55 | MB-L3-01Mainboard Lantai 3 | L3-LUX-01 | Illuminance / LUX 1 | 18.20 | lux |
| 11511 | 02/09/2026 | 14:54:55 | MB-L3-01Mainboard Lantai 3 | L3-RAD-02 | Radiation 2 | 1.00 | W/m² |
| 11512 | 02/09/2026 | 14:54:55 | MB-L3-01Mainboard Lantai 3 | L3-AI-04 | Analog Input 4 | 3.12 | V |
| 11513 | 02/09/2026 | 14:54:55 | MB-L3-01Mainboard Lantai 3 | L3-BGT-02 | Black Globe Temperature 2 | 29.70 | °C |
| 11514 | 02/09/2026 | 14:54:55 | MB-L3-01Mainboard Lantai 3 | L3-RAD-01 | Radiation 1 | 1.00 | W/m² |
| 11515 | 02/09/2026 | 14:54:55 | MB-L3-01Mainboard Lantai 3 | L3-SHT-03-RH | SHT20 3 Humidity | 48.90 | %RH |
| 11516 | 02/09/2026 | 14:54:55 | MB-L3-01Mainboard Lantai 3 | L3-ST-01 | Surface Temperature 1 | 29.90 | °C |
| 11517 | 02/09/2026 | 14:54:54 | MB-L5-01Mainboard Lantai 5 | L5-RAD-01 | Radiation 1 | 2.00 | W/m² |
| 11518 | 02/09/2026 | 14:54:54 | MB-L5-01Mainboard Lantai 5 | L5-AI-03 | Analog Input 3 | 3.05 | V |
| 11519 | 02/09/2026 | 14:54:54 | MB-L5-01Mainboard Lantai 5 | L5-AI-02 | Analog Input 2 | 3.05 | V |
| 11520 | 02/09/2026 | 14:54:54 | MB-L5-01Mainboard Lantai 5 | L5-AI-01 | Analog Input 1 | 3.05 | V |
| 11521 | 02/09/2026 | 14:54:54 | MB-L5-01Mainboard Lantai 5 | L5-SHT-01-RH | SHT20 1 Humidity | 48.40 | %RH |
| 11522 | 02/09/2026 | 14:54:54 | MB-L5-01Mainboard Lantai 5 | L5-BGT-03 | Black Globe Temperature 3 | 29.60 | °C |
| 11523 | 02/09/2026 | 14:54:54 | MB-L5-01Mainboard Lantai 5 | L5-LUX-01 | Illuminance / LUX 1 | 244.60 | lux |
| 11524 | 02/09/2026 | 14:54:54 | MB-L5-01Mainboard Lantai 5 | L5-LUX-03 | Illuminance / LUX 3 | 181.30 | lux |
| 11525 | 02/09/2026 | 14:54:54 | MB-L5-01Mainboard Lantai 5 | L5-BGT-02 | Black Globe Temperature 2 | 29.60 | °C |
| 11526 | 02/09/2026 | 14:54:54 | MB-L5-01Mainboard Lantai 5 | L5-BGT-01 | Black Globe Temperature 1 | 29.60 | °C |
| 11527 | 02/09/2026 | 14:54:54 | MB-L5-01Mainboard Lantai 5 | L5-HFT-02 | Heat Flow Temperature 2 | 29.90 | °C |
| 11528 | 02/09/2026 | 14:54:54 | MB-L5-01Mainboard Lantai 5 | L5-HFT-01 | Heat Flow Temperature 1 | 30.00 | °C |
| 11529 | 02/09/2026 | 14:54:54 | MB-L5-01Mainboard Lantai 5 | L5-LUX-06 | Illuminance / LUX 6 | 258.80 | lux |
| 11530 | 02/09/2026 | 14:54:54 | MB-L5-01Mainboard Lantai 5 | L5-ST-02 | Surface Temperature 2 | 30.20 | °C |
| 11531 | 02/09/2026 | 14:54:54 | MB-L5-01Mainboard Lantai 5 | L5-LUX-02 | Illuminance / LUX 2 | 190.40 | lux |
| 11532 | 02/09/2026 | 14:54:54 | MB-L5-01Mainboard Lantai 5 | L5-ST-01 | Surface Temperature 1 | 30.00 | °C |
| 11533 | 02/09/2026 | 14:54:54 | MB-L5-01Mainboard Lantai 5 | L5-SHT-01-T | SHT20 1 Temperature | 32.30 | °C |
| 11534 | 02/09/2026 | 14:54:54 | MB-L5-01Mainboard Lantai 5 | L5-RAD-02 | Radiation 2 | 1.00 | W/m² |
| 11535 | 02/09/2026 | 14:54:54 | MB-L5-01Mainboard Lantai 5 | L5-AI-06 | Analog Input 6 | 3.05 | V |
| 11536 | 02/09/2026 | 14:54:54 | MB-L5-01Mainboard Lantai 5 | L5-SHT-02-RH | SHT20 2 Humidity | 48.20 | %RH |
| 11537 | 02/09/2026 | 14:54:54 | MB-L5-01Mainboard Lantai 5 | L5-LUX-04 | Illuminance / LUX 4 | 267.00 | lux |
| 11538 | 02/09/2026 | 14:54:54 | MB-L5-01Mainboard Lantai 5 | L5-AI-05 | Analog Input 5 | 3.05 | V |
| 11539 | 02/09/2026 | 14:54:54 | MB-L5-01Mainboard Lantai 5 | L5-SHT-03-T | SHT20 3 Temperature | 32.20 | °C |
| 11540 | 02/09/2026 | 14:54:54 | MB-L5-01Mainboard Lantai 5 | L5-SHT-02-T | SHT20 2 Temperature | 32.30 | °C |
| 11541 | 02/09/2026 | 14:54:54 | MB-L5-01Mainboard Lantai 5 | L5-SHT-03-RH | SHT20 3 Humidity | 49.00 | %RH |
| 11542 | 02/09/2026 | 14:54:54 | MB-L5-01Mainboard Lantai 5 | L5-AI-04 | Analog Input 4 | 3.05 | V |
| 11543 | 02/09/2026 | 14:54:54 | MB-L5-01Mainboard Lantai 5 | L5-LUX-05 | Illuminance / LUX 5 | 489.20 | lux |
| 11544 | 02/09/2026 | 14:54:53 | MB-L3-01Mainboard Lantai 3 | L3-AI-01 | Analog Input 1 | 3.12 | V |
| 11545 | 02/09/2026 | 14:54:53 | MB-L3-01Mainboard Lantai 3 | L3-HFT-01 | Heat Flow Temperature 1 | 29.70 | °C |
| 11546 | 02/09/2026 | 14:54:53 | MB-L3-01Mainboard Lantai 3 | L3-LUX-05 | Illuminance / LUX 5 | 27.70 | lux |
| 11547 | 02/09/2026 | 14:54:53 | MB-L3-01Mainboard Lantai 3 | L3-AI-02 | Analog Input 2 | 3.12 | V |
| 11548 | 02/09/2026 | 14:54:53 | MB-L3-01Mainboard Lantai 3 | L3-LUX-04 | Illuminance / LUX 4 | 53.00 | lux |
| 11549 | 02/09/2026 | 14:54:53 | MB-L3-01Mainboard Lantai 3 | L3-HFT-02 | Heat Flow Temperature 2 | 29.10 | °C |
| 11550 | 02/09/2026 | 14:54:53 | MB-L3-01Mainboard Lantai 3 | L3-SHT-01-T | SHT20 1 Temperature | 32.10 | °C |
| 11551 | 02/09/2026 | 14:54:53 | MB-L3-01Mainboard Lantai 3 | L3-LUX-03 | Illuminance / LUX 3 | 96.70 | lux |
| 11552 | 02/09/2026 | 14:54:53 | MB-L3-01Mainboard Lantai 3 | L3-LUX-02 | Illuminance / LUX 2 | 30.60 | lux |
| 11553 | 02/09/2026 | 14:54:53 | MB-L3-01Mainboard Lantai 3 | L3-SHT-01-RH | SHT20 1 Humidity | 48.30 | %RH |
| 11554 | 02/09/2026 | 14:54:53 | MB-L3-01Mainboard Lantai 3 | L3-AI-03 | Analog Input 3 | 3.12 | V |
| 11555 | 02/09/2026 | 14:54:53 | MB-L3-01Mainboard Lantai 3 | L3-SHT-02-RH | SHT20 2 Humidity | 48.20 | %RH |
| 11556 | 02/09/2026 | 14:54:53 | MB-L3-01Mainboard Lantai 3 | L3-BGT-01 | Black Globe Temperature 1 | 29.60 | °C |
| 11557 | 02/09/2026 | 14:54:53 | MB-L3-01Mainboard Lantai 3 | L3-LUX-01 | Illuminance / LUX 1 | 19.10 | lux |
| 11558 | 02/09/2026 | 14:54:53 | MB-L3-01Mainboard Lantai 3 | L3-RAD-02 | Radiation 2 | 1.00 | W/m² |
| 11559 | 02/09/2026 | 14:54:53 | MB-L3-01Mainboard Lantai 3 | L3-AI-04 | Analog Input 4 | 3.12 | V |
| 11560 | 02/09/2026 | 14:54:53 | MB-L3-01Mainboard Lantai 3 | L3-BGT-02 | Black Globe Temperature 2 | 29.80 | °C |
| 11561 | 02/09/2026 | 14:54:53 | MB-L3-01Mainboard Lantai 3 | L3-RAD-01 | Radiation 1 | 1.00 | W/m² |
| 11562 | 02/09/2026 | 14:54:53 | MB-L3-01Mainboard Lantai 3 | L3-SHT-03-RH | SHT20 3 Humidity | 49.00 | %RH |
| 11563 | 02/09/2026 | 14:54:53 | MB-L3-01Mainboard Lantai 3 | L3-ST-01 | Surface Temperature 1 | 29.90 | °C |
| 11564 | 02/09/2026 | 14:54:53 | MB-L3-01Mainboard Lantai 3 | L3-AI-05 | Analog Input 5 | 3.12 | V |
| 11565 | 02/09/2026 | 14:54:53 | MB-L3-01Mainboard Lantai 3 | L3-SHT-03-T | SHT20 3 Temperature | 31.90 | °C |
| 11566 | 02/09/2026 | 14:54:53 | MB-L3-01Mainboard Lantai 3 | L3-SHT-02-T | SHT20 2 Temperature | 32.00 | °C |
| 11567 | 02/09/2026 | 14:54:53 | MB-L3-01Mainboard Lantai 3 | L3-BGT-03 | Black Globe Temperature 3 | 29.20 | °C |
| 11568 | 02/09/2026 | 14:54:53 | MB-L3-01Mainboard Lantai 3 | L3-ST-02 | Surface Temperature 2 | 30.10 | °C |
| 11569 | 02/09/2026 | 14:54:53 | MB-L3-01Mainboard Lantai 3 | L3-AI-06 | Analog Input 6 | 3.12 | V |
| 11570 | 02/09/2026 | 14:54:53 | MB-L3-01Mainboard Lantai 3 | L3-LUX-06 | Illuminance / LUX 6 | 29.70 | lux |
| 11571 | 02/09/2026 | 14:54:52 | MB-L3-01Mainboard Lantai 3 | L3-AI-02 | Analog Input 2 | 3.12 | V |
| 11572 | 02/09/2026 | 14:54:52 | MB-L3-01Mainboard Lantai 3 | L3-LUX-04 | Illuminance / LUX 4 | 62.90 | lux |
| 11573 | 02/09/2026 | 14:54:52 | MB-L5-01Mainboard Lantai 5 | L5-SHT-01-RH | SHT20 1 Humidity | 48.40 | %RH |
| 11574 | 02/09/2026 | 14:54:52 | MB-L5-01Mainboard Lantai 5 | L5-BGT-03 | Black Globe Temperature 3 | 29.60 | °C |
| 11575 | 02/09/2026 | 14:54:52 | MB-L3-01Mainboard Lantai 3 | L3-HFT-02 | Heat Flow Temperature 2 | 29.10 | °C |
| 11576 | 02/09/2026 | 14:54:52 | MB-L3-01Mainboard Lantai 3 | L3-SHT-01-T | SHT20 1 Temperature | 32.20 | °C |
| 11577 | 02/09/2026 | 14:54:52 | MB-L5-01Mainboard Lantai 5 | L5-LUX-01 | Illuminance / LUX 1 | 255.50 | lux |
| 11578 | 02/09/2026 | 14:54:52 | MB-L5-01Mainboard Lantai 5 | L5-LUX-03 | Illuminance / LUX 3 | 181.30 | lux |
| 11579 | 02/09/2026 | 14:54:52 | MB-L5-01Mainboard Lantai 5 | L5-BGT-02 | Black Globe Temperature 2 | 29.60 | °C |
| 11580 | 02/09/2026 | 14:54:52 | MB-L3-01Mainboard Lantai 3 | L3-LUX-03 | Illuminance / LUX 3 | 107.30 | lux |
| 11581 | 02/09/2026 | 14:54:52 | MB-L3-01Mainboard Lantai 3 | L3-LUX-02 | Illuminance / LUX 2 | 34.30 | lux |
| 11582 | 02/09/2026 | 14:54:52 | MB-L3-01Mainboard Lantai 3 | L3-SHT-01-RH | SHT20 1 Humidity | 48.40 | %RH |
| 11583 | 02/09/2026 | 14:54:52 | MB-L5-01Mainboard Lantai 5 | L5-BGT-01 | Black Globe Temperature 1 | 29.70 | °C |
| 11584 | 02/09/2026 | 14:54:52 | MB-L3-01Mainboard Lantai 3 | L3-AI-03 | Analog Input 3 | 3.12 | V |
| 11585 | 02/09/2026 | 14:54:52 | MB-L5-01Mainboard Lantai 5 | L5-HFT-02 | Heat Flow Temperature 2 | 29.90 | °C |
| 11586 | 02/09/2026 | 14:54:52 | MB-L3-01Mainboard Lantai 3 | L3-SHT-02-RH | SHT20 2 Humidity | 48.20 | %RH |
| 11587 | 02/09/2026 | 14:54:52 | MB-L3-01Mainboard Lantai 3 | L3-BGT-01 | Black Globe Temperature 1 | 29.70 | °C |
| 11588 | 02/09/2026 | 14:54:52 | MB-L3-01Mainboard Lantai 3 | L3-LUX-01 | Illuminance / LUX 1 | 20.80 | lux |
| 11589 | 02/09/2026 | 14:54:52 | MB-L3-01Mainboard Lantai 3 | L3-RAD-02 | Radiation 2 | 1.00 | W/m² |
| 11590 | 02/09/2026 | 14:54:52 | MB-L5-01Mainboard Lantai 5 | L5-HFT-01 | Heat Flow Temperature 1 | 30.10 | °C |
| 11591 | 02/09/2026 | 14:54:52 | MB-L5-01Mainboard Lantai 5 | L5-LUX-06 | Illuminance / LUX 6 | 277.00 | lux |
| 11592 | 02/09/2026 | 14:54:52 | MB-L5-01Mainboard Lantai 5 | L5-ST-02 | Surface Temperature 2 | 30.20 | °C |
| 11593 | 02/09/2026 | 14:54:52 | MB-L3-01Mainboard Lantai 3 | L3-AI-04 | Analog Input 4 | 3.12 | V |
| 11594 | 02/09/2026 | 14:54:52 | MB-L5-01Mainboard Lantai 5 | L5-LUX-02 | Illuminance / LUX 2 | 212.90 | lux |
| 11595 | 02/09/2026 | 14:54:52 | MB-L3-01Mainboard Lantai 3 | L3-BGT-02 | Black Globe Temperature 2 | 29.70 | °C |
| 11596 | 02/09/2026 | 14:54:52 | MB-L3-01Mainboard Lantai 3 | L3-RAD-01 | Radiation 1 | 1.00 | W/m² |
| 11597 | 02/09/2026 | 14:54:52 | MB-L5-01Mainboard Lantai 5 | L5-ST-01 | Surface Temperature 1 | 29.90 | °C |
| 11598 | 02/09/2026 | 14:54:52 | MB-L5-01Mainboard Lantai 5 | L5-SHT-01-T | SHT20 1 Temperature | 32.30 | °C |
| 11599 | 02/09/2026 | 14:54:52 | MB-L3-01Mainboard Lantai 3 | L3-SHT-03-RH | SHT20 3 Humidity | 48.80 | %RH |
| 11600 | 02/09/2026 | 14:54:52 | MB-L5-01Mainboard Lantai 5 | L5-RAD-02 | Radiation 2 | 1.00 | W/m² |
Menampilkan maksimal 100 data per halaman